[TLELIST] Archives

 

Current TLEs

April 26th 2008 PDT

HST 1 20580U 90037B 08116.52763230 .00000392 00000-0 17535-4 0 1214 2 20580 028.4695 306.6840 0003879 184.1970 175.8595 15.00369646787063 ISS (ZARYA) 1 25544U 98067A 08117.50166446 .00015357 00000-0 10176-3 0 3767 2 25544 051.6403 282.7333 0007076 139.8958 292.8919 15.75725221540378 CXO 1 25867U 99040B 08117.33333333 .00000454 00000-0 10000-3 0 1912 2 25867 063.5226 081.8430 6743513 279.5019 358.7525 00.37806378 3437 ____________________________________________________________________ These 2-Line ...Continue Reading

Current TLEs

April 25th 2008 PDT

HST 1 20580U 90037B 08114.93116705 +.00000377 +00000-0 +16321-4 0 01323 2 20580 028.4696 317.0950 0003862 168.0558 192.0121 15.00368809786826 ISS (ZARYA) 1 25544U 98067A 08116.35903090 -.02158295 00000-0 -15827-1 0 3694 2 25544 051.6414 288.6306 0003577 107.1001 319.6264 15.75547993540193 CXO 1 25867U 99040B 08114.62500000 .00000385 00000-0 10000-3 0 1900 2 25867 063.5125 081.9044 6737701 279.5311 350.0399 00.37806185 3423 ____________________________________________________________________ These 2-Line ...Continue Reading

Current TLEs

April 24th 2008 PDT

HST 1 20580U 90037B 08114.99768649 .00000386 00000-0 17057-4 0 1203 2 20580 028.4696 316.6612 0003861 168.4509 191.6171 15.00368914786833 ISS (ZARYA) 1 25544U 98067A 08115.47862078 .00018114 00000-0 11169-3 0 3649 2 25544 051.6433 293.1550 0004114 070.1154 035.1194 15.77239805540051 CXO 1 25867U 99040B 08114.62500000 .00000385 00000-0 10000-3 0 1900 2 25867 063.5125 081.9044 6737701 279.5311 350.0399 00.37806185 3423 ____________________________________________________________________ These 2-Line ...Continue Reading

Current TLEs

April 23rd 2008 PDT

HST 1 20580U 90037B 08113.86685640 .00000368 00000-0 15685-4 0 1190 2 20580 028.4695 324.0348 0003849 157.1852 202.8908 15.00368274786666 ISS (ZARYA) 1 25544U 98067A 08114.52451538 .00016440 00000-0 10194-3 0 3589 2 25544 051.6421 298.0772 0003817 068.4245 015.7387 15.77200782539900 CXO 1 25867U 99040B 08114.62500000 .00000385 00000-0 10000-3 0 1900 2 25867 063.5125 081.9044 6737701 279.5311 350.0399 00.37806185 3423 ____________________________________________________________________ These 2-Line ...Continue Reading

Current TLEs

April 22nd 2008 PDT

HST 1 20580U 90037B 08111.93779220 +.00000352 +00000-0 +14407-4 0 01356 2 20580 028.4694 336.6143 0003809 137.5764 222.5121 15.00367305786375 ISS (ZARYA) 1 25544U 98067A 08113.50298569 -.00000460 00000-0 12383-5 0 3512 2 25544 051.6442 303.3458 0004093 057.6326 342.5110 15.77159138539746 CXO 1 25867U 99040B 08112.00000000 .00000355 00000-0 10000-3 0 1890 2 25867 063.5010 081.9508 6731371 279.5782 352.6474 00.37806039 3419 ____________________________________________________________________ These 2-Line ...Continue Reading

Current TLEs

April 21st 2008 PDT

HST 1 20580U 90037B 08112.00431167 .00000377 00000-0 16326-4 0 1180 2 20580 028.4695 336.1807 0003839 137.3622 222.7265 15.00367540786385 ISS (ZARYA) 1 25544U 98067A 08112.49974262 .00022753 00000-0 13988-3 0 3440 2 25544 051.6410 308.5388 0003433 050.6617 049.4708 15.77133025539588 CXO 1 25867U 99040B 08112.00000000 .00000355 00000-0 10000-3 0 1890 2 25867 063.5010 081.9508 6731371 279.5782 352.6474 00.37806039 3419 ____________________________________________________________________ These 2-Line ...Continue Reading

Current TLEs

April 20th 2008 PDT

HST 1 20580U 90037B 08110.87347993 .00000332 00000-0 12866-4 0 1171 2 20580 028.4695 343.5568 0003740 128.1019 231.9906 15.00366782786213 ISS (ZARYA) 1 25544U 98067A 08111.53621903 .00021323 00000-0 12819-3 0 3393 2 25544 051.6404 313.4945 0001405 026.5460 357.8200 15.77689988539431 CXO 1 25867U 99040B 08112.00000000 .00000355 00000-0 10000-3 0 1890 2 25867 063.5010 081.9508 6731371 279.5782 352.6474 00.37806039 3419 ____________________________________________________________________ These 2-Line ...Continue Reading

Current TLEs

April 19th 2008 PDT

HST 1 20580U 90037B 08109.07745167 .00000348 00000-0 14070-4 0 1161 2 20580 028.4693 355.2679 0003699 109.1642 250.9347 15.00366206785948 ISS (ZARYA) 1 25544U 98067A 08110.15589395 .00017509 00000-0 10635-3 0 3337 2 25544 051.6409 320.6231 0001732 018.2917 081.0795 15.77615911539218 CXO 1 25867U 99040B 08109.37500000 .00000363 00000-0 10000-3 0 1889 2 25867 063.4860 081.9928 6726178 279.6333 355.2286 00.37806434 3407 ____________________________________________________________________ These 2-Line ...Continue Reading

Current TLEs

April 18th 2008 PDT

HST 1 20580U 90037B 08109.07745167 .00000348 00000-0 14070-4 0 1161 2 20580 028.4693 355.2679 0003699 109.1642 250.9347 15.00366206785948 ISS (ZARYA) 1 25544U 98067A 08109.51752156 .00016194 00000-0 98795-4 0 3289 2 25544 051.6406 323.9173 0001630 021.4503 049.8973 15.77587129539118 CXO 1 25867U 99040B 08109.37500000 .00000363 00000-0 10000-3 0 1889 2 25867 063.4860 081.9928 6726178 279.6333 355.2286 00.37806434 3407 ____________________________________________________________________ These 2-Line ...Continue Reading

Current TLEs

April 17th 2008 PDT

HST 1 20580U 90037B 08107.88009891 .00000335 00000-0 13108-4 0 1151 2 20580 028.4691 003.0765 0003628 096.1105 263.9895 15.00365614785765 ISS (ZARYA) 1 25544U 98067A 08108.19227049 .00015506 00000-0 94968-4 0 3228 2 25544 051.6409 330.7595 0001548 018.5289 081.3079 15.77539498538901 CXO 1 25867U 99040B 08106.70833333 .00000353 00000-0 10000-3 0 1879 2 25867 063.4732 082.0598 6722043 279.6743 352.1395 00.37806286 3392 ____________________________________________________________________ These 2-Line ...Continue Reading
  • This mailing list is a public mailing list - anyone may join or leave, at any time.
  • This mailing list is announce-only.

International Space Station (ISS) / Hubble Space Telescope (HST) / Chandra X-Ray Observatory Orbital Data via EMAIL

Privacy Policy:

Private list